GOMX4-B

Last updated on Sat Feb 09 2019 03:04:20 GMT+0000 (Coordinated Universal Time)

1 43196U 18015E 19039.42584571 .00000026 00000-0 40273-5 0 9995 2 43196 97.3725 168.9869 0020453 48.1882 312.1069 15.23806109 56503
UTC large
Height (km)
Speed (km/s)
/
Latitude / Longitude
Inclination (degrees)
Orbital Period (minutes)
Azimuth
Elevation
Range (km)
Doppler Factor

Next 0 passes for location: London (51.5072 / 0.1276)

Sorry there are no passes over London.